Regional Weather Roundup
Issued by NWS

Home | Current Version | Previous Version | Text Only | Print | Product List | Glossary Off
Versions: 1 2 3 4 5 6 7 8 9 10 11 12 13 14 15 16 17 18 19 20 21 22 23 24 25 26 27

000
ASUS45 KBOI 112310
RWRID

IDAHO REGIONAL WEATHER ROUNDUP
NATIONAL WEATHER SERVICE BOISE ID
400 PM MST MON DEC 11 2017

NOTE: "FAIR" INDICATES FEW OR NO CLOUDS BELOW 12000 FEET
WITH NO SIGNIFICANT WEATHER AND/OR OBSTRUCTIONS TO VISIBILITY

IDZ012-014-120000-
SOUTHWEST IDAHO


CITY           SKY/WX    TMP DP  RH WIND       PRES   REMARKS
BOISE          CLOUDY    25  21  85 NW6       30.64S WCI  18
CALDWELL       NOT AVBL
MOUNTAIN HOME  CLOUDY    25  25 100 W5        30.63S WCI  19
$$

IDZ016-017-120000-
SOUTHCENTRAL IDAHO


CITY           SKY/WX    TMP DP  RH WIND       PRES   REMARKS
BURLEY         CLEAR     38  23  55 CALM      30.51S
JEROME         CLEAR     28  22  78 SW7       30.55R WCI  21
TWIN FALLS     PTCLDY    29  26  89 SW3       30.54S FOG
$$

IDZ019>023-120000-
SOUTHEAST IDAHO


CITY           SKY/WX    TMP DP  RH WIND       PRES   REMARKS
IDAHO FALLS    CLOUDY    29  23  78 CALM      30.54F
POCATELLO      CLOUDY    33  19  56 NE3       30.54F
REXBURG        CLOUDY    33  18  53 NE3       30.54S
$$

IDZ006-010-011-018-031-032-120000-
CENTRAL IDAHO MOUNTAINS


CITY           SKY/WX    TMP DP  RH WIND       PRES   REMARKS
MCCALL         CLEAR     28  15  58 SE3       30.49S
HAILEY         CLEAR     43  19  39 S5        30.52S
STANLEY          N/A     24  14  65 CALM      30.55S
SALMON         CLOUDY    18  13  80 CALM      30.68F
CHALLIS        CLEAR     29  14  53 CALM      30.57S
$$

IDZ002-004-006-007-026-120000-
NORTHERN IDAHO


CITY           SKY/WX    TMP DP  RH WIND       PRES   REMARKS
LEWISTON       CLOUDY    30  24  78 CALM      30.60S
LOWELL           N/A     33  29  85 CALM      30.57R
COEUR D`ALENE  PTCLDY    35  25  66 N8        30.54S WCI  29
MULLAN PASS    CLEAR     44   4  19 SW5       30.46R
$$




USA.gov is the U.S. government's official web portal to all federal, state and local government web resources and services.